Find Starlink 31253

NORAD ID: 58830 Int'l Des: 2024-017 Owner: SPXS Country: US Constellation: starlink operational
LEOCIRCULAR

現在のビュー

3D地球を読み込み中...

About Starlink 31253

Starlink 31253 (NORAD 58830) is a starlink constellation satellite (v2 mini) launched Jan 24, 2024 by SPXS of US. It operates in LEO, CIRCULAR orbit with a mass of 730.00 kg.

Starlink 31253について

説明を読み込み中...

次回通過

Passes for default location (London). Set your location on the main map for personalized predictions.

高度履歴

Loading altitude history...

軌道要素

1 58830U 24017E 26174.99917895 .00000752 00000-0 35986-4 0 9994
2 58830 53.1611 69.7500 0001160 90.8411 269.2724 15.31709423136345
Epoch: Jun 23, 2026 • Age: 31 hours

現在のステータス

高度 489.0 km
速度 7.62 km/s
衛星直下点 -50.85°S, 66.11°W
打ち上げ日 Jan 24, 2024
運用期間 2.4 years
タイプ internet

技術仕様

分類 Payload
質量 730.00 kg
乾燥質量 700.00 kg
総質量 730.00 kg
長さ 0.30 m
直径 4.10 m
スパン 29.00 m
形状 Box + pan
製造者 SPXS
バスタイプ Starlink V2M
フェーズステータス In Orbit
所有者/国 SPXS/US

Most Searched